Regional Weather Roundup
Issued by NWS

Home | Current Version | Previous Version | Text Only | Print | Product List | Glossary Off
Versions: 1 2 3 4 5 6 7 8 9 10 11 12 13 14 15 16 17 18 19 20 21 22 23 24 25 26 27 28 29 30 31 32 33 34 35 36 37 38 39 40 41 42 43 44 45 46 47 48 49 50

000
ASUS43 KLOT 230608
RWRIL

ILLINOIS REGIONAL WEATHER ROUNDUP
NATIONAL WEATHER SERVICE CHICAGO/ROMEOVILLE IL
100 AM CDT TUE MAY 23 2017

NOTE: "FAIR" INDICATES FEW OR NO CLOUDS BELOW 12,000 FEET WITH NO
SIGNIFICANT WEATHER AND/OR OBSTRUCTIONS TO VISIBILITY.

* THESE STATIONS ARE NOT UNDER NWS QUALITY CONTROL. THEY ALSO MAY NOT
  REPORT WEATHER SUCH AS PRECIPITATION OR FOG.

ILZ001-002-007-009-015-016-024-230700-
NORTHWEST ILLINOIS

CITY           SKY/WX    TMP DP  RH WIND       PRES   REMARKS
MOLINE         CLOUDY    58  53  84 S3        29.84F
6HR MIN TEMP:  58; 6HR MAX TEMP:  63;

STERLING*      CLOUDY    57  54  89 CALM      29.86F
SAVANNA*       PTCLDY    55  54  97 SE6       29.84S
$$

ILZ003-004-008-010-011-017-018-230700-
NORTH CENTRAL ILLINOIS

CITY           SKY/WX    TMP DP  RH WIND       PRES   REMARKS
ROCKFORD       CLOUDY    58  54  86 SW7       29.86F
6HR MIN TEMP:  58; 6HR MAX TEMP:  66;

FREEPORT*      CLOUDY    55  54  95 S14       29.85F
ROCHELLE*      CLOUDY    56  54  93 S12       29.86F
DE KALB*       CLOUDY    57  54  91 SW12      29.87F
PERU*          CLOUDY    57  54  88 SW8       29.88F
$$

ILZ005-006-012>014-019>023-230700-
NORTHEAST ILLINOIS

CITY           SKY/WX    TMP DP  RH WIND       PRES   REMARKS
CHICAGO-OHARE  CLOUDY    60  53  77 SW8G17    29.86F
6HR MIN TEMP:  60; 6HR MAX TEMP:  68; 6HR PCP:  0.01;

CHICAGO-MIDWAY CLOUDY    61  54  77 SW12      29.88F
6HR MIN TEMP:  60; 6HR MAX TEMP:  68; 6HR PCP:  0.01;

AURORA         CLOUDY    59  55  87 S9        29.88F
6HR MIN TEMP:  59; 6HR MAX TEMP:  66;

LANSING*       CLOUDY    60  55  83 SW12      29.90F
WAUKEGAN       PTCLDY    58  54  86 SW6       29.85F
6HR MIN TEMP:  58; 6HR MAX TEMP:  68;

DUPAGE AIRPORT CLOUDY    59  55  87 S9G21     29.87F
6HR MIN TEMP:  57; 6HR MAX TEMP:  64;

KANKAKEE*      CLOUDY    58  55  88 CALM      29.93F
WHEELING       PTCLDY    60  55  83 SW10      29.87F
6HR MIN TEMP:  60; 6HR MAX TEMP:  67;

MORRIS*        CLOUDY    59  55  84 SW7       29.88F
ROMEOVILLE*    CLOUDY    59  56  91 SW13      29.89S
NORTHERLY ISL    N/A     61  51  70 SW7         N/A
$$

LMZ740>746-230700-
SOUTHERN LAKE MICHIGAN

STATION/POSITION SKY/WX   TEMP    WIND        PRES    VSBY  WAVE
                          AIR SEA DIR/SP/G                  HT/PER
                          (F)     (DEG/KT/KT) (MB)    (MI)  (FT/S)
SOUTHERN BUOY              50 45  220/ 10/ 12 1011.6          1/ 3
WILMETTE HARBOR            59 54                N/A           1/ 2
HARRISON CRIB              62     220/ 19/ 21   N/A
BURNHAM HARBOR             61     220/  8/ 10   N/A
CALUMET HARBOR             61     200/  9/ 15 1011.7F
BURNS HARBOR               62     210/ 13/ 17 1012.9F
MICHIGAN CITY              62     190/ 11/ 12   N/A
MICHIGAN CITY 6N           58 53  210/ 10/ 12   N/A           2/ 3
ST. JOSEPH                 56 54  190/  6/  6 1012.5          2/ 4
$$

ILZ025>027-034>036-040-047-049-050-058-095>099-230700-
WEST-CENTRAL ILLINOIS

CITY           SKY/WX    TMP DP  RH WIND       PRES   REMARKS
QUINCY         RAIN      57  56  96 SE6       29.90F FOG
GALESBURG*     CLOUDY    57  52  84 S12       29.86F
MACOMB*        CLOUDY    56  55  94 S10       29.92F
JACKSONVILLE*  LGT RAIN  56  55  95 NE3       29.91F
PITTSFIELD*    CLOUDY    56  55  97 CALM      29.92F
$$

ILZ028>032-037-038-041>044-048-051>054-059>061-230700-
CENTRAL ILLINOIS

CITY           SKY/WX    TMP DP  RH WIND       PRES   REMARKS
PONTIAC        DRIZZLE   60  58  94 SW10      29.92F
BLOOMINGTON    LGT RAIN  57  54  89 SW12      29.95F
DECATUR        CLOUDY    60  56  86 NW12      29.94F
PEORIA         CLOUDY    58  56  93 S12       29.90F
6HR MIN TEMP:  57; 6HR MAX TEMP:  59; 6HR PCP:  0.02;

LACON*         CLOUDY    58  55  89 S8        29.88S
LINCOLN*       RAIN      58  58  99 S3        29.94F
SPRINGFIELD    MOCLDY    59  57  93 CALM      29.94F
6HR MIN TEMP:  58; 6HR MAX TEMP:  62; 6HR PCP:  0.09;

TAYLORVILLE    MOCLDY    59  58  95 N7        29.94F
6HR MIN TEMP:  58; 6HR MAX TEMP:  68;

$$

ILZ033-039-045-046-055>057-062-063-230700-
EAST-CENTRAL ILLINOIS

CITY           SKY/WX    TMP DP  RH WIND       PRES   REMARKS
CHAMPAIGN      CLOUDY    60  55  83 CALM      29.93F
RANTOUL*       CLOUDY    61  58  91 W3        29.94S
MATTOON        CLOUDY    59  57  93 CALM      29.93F
PARIS*         CLOUDY    59  52  75 SE5       29.94F
$$

ILZ079-100>102-230700-
SOUTHWEST ILLINOIS

CITY           SKY/WX    TMP DP  RH WIND       PRES   REMARKS
ALTON          CLOUDY    60  57  89 NE3       29.92F
BELLEVILLE     CLOUDY    61  55  81 CALM      29.91F
CAHOKIA*       MOCLDY    62  51  67 S3        29.89F
SPARTA*        PTCLDY    60  56  89 CALM      29.92F
$$

ILZ064>066-069>071-074>076-080>082-084>086-088>090-092>094-230700-
SOUTH-CENTRAL ILLINOIS

CITY           SKY/WX    TMP DP  RH WIND       PRES   REMARKS
CARBONDALE     MOCLDY    59  59 100 SE3       29.91F
6HR MIN TEMP:  58; 6HR MAX TEMP:  72;

CAIRO*         CLOUDY    59  55  85 N3        29.92F
EFFINGHAM*     CLOUDY    60  56  89 CALM      29.94F
MARION         CLOUDY    57  57 100 CALM      29.93F
MT. VERNON       N/A     59  56  89 CALM      29.92F
CENTRALIA*     CLOUDY    62  56  81 CALM      29.91F
SALEM*         CLOUDY    65  51  61 SE5       29.92F
METROPOLIS*    CLOUDY    58  55  89 CALM      29.93F
$$

ILZ067-068-072-073-078-083-087-091-230700-
SOUTHEAST ILLINOIS

CITY           SKY/WX    TMP DP  RH WIND       PRES   REMARKS
LAWRENCEVILLE  PTCLDY    62  52  69 SE3       29.94F
FLORA*         CLOUDY    64  54  69 CALM      29.93F
FAIRFIELD*     CLOUDY    63  53  67 CALM      29.91F
HARRISBURG*    PTCLDY    57  54  88 CALM      29.93F
ROBINSON*      CLOUDY    59  55  84 CALM      29.94F
CARMI*         CLOUDY    60  53  76 CALM      29.92F
$$

ABBREVIATIONS USED IN REMARKS
   TC - TEMPERATURE IN CELSIUS
  WCI - WIND CHILL INDEX
   HX - HEAT INDEX
  VSB - VISIBILITY
$$




USA.gov is the U.S. government's official web portal to all federal, state and local government web resources and services.